GW5538 Weather Reports


time (UTC)temp
C
wind
direction
speed
KPH
gust
KPH
rain 1hr
cm
rain 24hr
cm
rain mn
cm
humidity
%
barometer
mb
20260507065930 11 309 9.7 11.3 0.30 0.30 0.30 92 1008.1
20260507065427 11 31 4.8 9.7 0.79 0.28 0.28 92 1007.7
20260507064924 11 327 11.3 14.5 1.50 0.25 0.25 91 1007.8
20260507064422 11 288 8.0 25.7 0.89 0.15 0.15 90 1008.5
20260507063920 11 228 19.3 24.1 0.00 0.00 0.00 89 1009.1
20260507063417 11 84 1.6 4.8 0.00 0.00 0.00 88 1006.7
20260507062914 11 70 6.4 9.7 0.00 0.00 0.00 89 1006.6
20260507062411 11 39 1.6 6.4 0.00 0.00 0.00 88 1006.8
20260507061908 11 51 1.6 6.4 0.00 0.00 0.00 88 1006.7
20260507061407 12 75 1.6 4.8 0.00 0.00 0.00 88 1006.5
20260507060905 12 69 0.0 4.8 0.00 0.00 0.00 88 1006.6
20260507060401 12 36 3.2 6.4 0.00 0.00 0.00 87 1006.8
20260507055858 13 86 6.4 11.3 0.00 0.00 0.00 86 1006.7
20260507055352 13 70 1.6 4.8 0.00 0.00 0.00 89 1006.6
20260507054850 13 47 3.2 4.8 0.00 0.00 0.00 89 1006.8
20260507054346 12 66 0.0 3.2 0.00 0.00 0.00 90 1006.6
20260507053843 12 36 1.6 3.2 0.00 0.00 0.00 92 1006.7
20260507053341 12 62 1.6 3.2 0.00 0.00 0.00 92 1006.7
20260507052839 12 66 1.6 1.6 0.00 0.00 0.00 93 1006.8
20260507052336 12 81 0.0 1.6 0.00 0.00 0.00 93 1006.9
20260507051833 11 89 1.6 3.2 0.00 0.00 0.00 93 1007.0
20260507051331 11 79 0.0 1.6 0.00 0.00 0.00 94 1006.8
20260507050828 11 77 0.0 1.6 0.00 0.00 0.00 94 1007.2
20260507050324 11 83 0.0 1.6 0.00 0.00 0.00 94 1007.1
20260507045821 11 90 1.6 1.6 0.00 0.00 0.00 95 1007.3
20260507045317 10 94 0.0 1.6 0.00 0.00 0.00 95 1007.3
20260507044815 10 93 0.0 0.0 0.00 0.00 0.00 95 1007.3
20260507044311 10 93 0.0 0.0 0.00 0.00 0.00 95 1007.2
20260507043807 10 95 0.0 1.6 0.00 0.00 0.00 95 1007.4
20260507043304 10 91 1.6 3.2 0.00 0.00 0.00 95 1007.1
20260507042800 10 81 3.2 3.2 0.00 0.00 0.00 95 1007.1
20260507042255 10 91 1.6 1.6 0.00 0.00 0.00 96 1007.1
20260507041753 10 89 0.0 1.6 0.00 0.00 0.00 96 1007.1
20260507041249 9 88 0.0 3.2 0.00 0.00 0.00 96 1007.3
20260507040747 8 92 4.8 4.8 0.00 0.00 0.00 96 1007.2
20260507040243 8 69 0.0 4.8 0.00 0.00 0.00 96 1007.2
20260507035739 8 75 0.0 3.2 0.00 0.00 0.00 97 1007.1
20260507035234 8 85 0.0 0.0 0.00 0.00 0.00 97 1007.1
20260507034732 8 80 0.0 0.0 0.00 0.00 0.00 96 1007.1
20260507034229 8 74 0.0 0.0 0.00 0.00 0.00 96 1007.1
20260507033727 8 74 0.0 1.6 0.00 0.00 0.00 97 1007.0
20260507033224 7 74 0.0 1.6 0.00 0.00 0.00 96 1006.9
20260507032722 7 69 3.2 3.2 0.00 0.00 0.00 96 1006.9
20260507032217 7 71 0.0 0.0 0.00 0.00 0.00 96 1006.8
20260507031714 7 80 0.0 0.0 0.00 0.00 0.00 96 1007.1
20260507031211 7 80 0.0 0.0 0.00 0.00 0.00 97 1007.2
20260507030708 7 72 0.0 1.6 0.00 0.00 0.00 96 1007.0
20260507030205 7 73 0.0 0.0 0.00 0.00 0.00 96 1007.0
20260507025702 7 72 0.0 0.0 0.00 0.00 0.00 96 1007.1
20260507025159 7 76 0.0 0.0 0.00 0.00 0.00 96 1007.1
20260507024657 7 80 0.0 0.0 0.00 0.00 0.00 96 1007.2
20260507024154 7 80 0.0 0.0 0.00 0.00 0.00 96 1007.1
20260507023649 7 80 0.0 0.0 0.00 0.00 0.00 96 1007.1
20260507023147 7 71 1.6 3.2 0.00 0.00 0.00 96 1007.0
20260507022644 7 78 0.0 1.6 0.00 0.00 0.00 96 1007.1
20260507022140 7 73 0.0 1.6 0.00 0.00 0.00 96 1007.0
20260507021636 7 77 0.0 1.6 0.00 0.00 0.00 96 1006.8
20260507021132 7 74 0.0 3.2 0.00 0.00 0.00 96 1006.8
20260507020630 7 72 1.6 1.6 0.00 0.00 0.00 96 1006.8
20260507020126 7 66 1.6 1.6 0.00 0.00 0.00 96 1007.0
20260507015625 7 76 1.6 3.2 0.00 0.00 0.00 96 1006.9
20260507015122 7 76 0.0 1.6 0.00 0.00 0.00 96 1006.9
20260507014618 7 75 0.0 0.0 0.00 0.00 0.00 96 1006.9
20260507014114 7 67 1.6 3.2 0.00 0.00 0.00 96 1006.8
20260507013611 7 74 0.0 1.6 0.00 0.00 0.00 96 1006.9
20260507013108 7 78 0.0 1.6 0.00 0.00 0.00 96 1006.7
20260507012606 7 76 0.0 0.0 0.00 0.00 0.00 96 1006.6
20260507012101 7 77 0.0 0.0 0.00 0.00 0.00 96 1006.7
20260507011559 7 77 0.0 0.0 0.00 0.00 0.00 96 1006.9
20260507011055 7 77 0.0 0.0 0.00 0.00 0.00 96 1006.7
20260507010550 7 81 0.0 0.0 0.00 0.00 0.00 96 1006.6
20260507010046 7 70 0.0 1.6 0.00 0.00 0.00 96 1006.8
20260507005544 7 83 0.0 0.0 0.00 0.00 0.00 95 1006.9
20260507005040 7 81 0.0 0.0 0.00 0.00 0.00 95 1006.7
20260507004537 7 74 0.0 3.2 0.00 0.00 0.00 95 1006.8
20260507004029 7 68 1.6 3.2 0.00 0.00 0.00 96 1006.7
20260507003524 7 74 0.0 1.6 0.00 0.00 0.00 95 1006.5
20260507003019 7 66 1.6 1.6 0.00 0.00 0.00 95 1006.8
20260507002517 7 63 0.0 0.0 0.00 0.00 0.00 95 1006.9
20260507002013 7 75 0.0 0.0 0.00 0.00 0.00 95 1006.9
20260507001509 7 75 0.0 1.6 0.00 0.00 0.00 95 1006.8
20260507001007 7 83 0.0 0.0 0.00 0.00 0.00 95 1006.8
20260507000502 7 83 0.0 0.0 0.00 0.00 0.00 95 1006.8
20260506235957 7 82 0.0 0.0 0.00 0.00 0.00 95 1006.9
20260506235455 7 87 0.0 0.0 0.00 0.00 0.00 94 1006.8
20260506234951 7 87 0.0 3.2 0.00 0.00 0.00 94 1006.8
20260506234449 7 74 0.0 0.0 0.00 0.00 0.00 94 1006.6
20260506233946 7 70 0.0 0.0 0.00 0.00 0.00 94 1006.9
20260506233442 8 69 0.0 0.0 0.00 0.00 0.00 94 1006.9
20260506232939 8 66 0.0 0.0 0.00 0.00 0.00 94 1006.8
20260506232435 8 66 0.0 1.6 0.00 0.00 0.00 94 1006.6
20260506231931 8 64 0.0 1.6 0.00 0.00 0.00 94 1006.9
20260506231429 8 59 1.6 1.6 0.00 0.00 0.00 94 1006.9
20260506230926 8 73 0.0 1.6 0.00 0.00 0.00 93 1006.9
20260506230422 8 74 0.0 1.6 0.00 0.00 0.00 93 1006.8
20260506225919 8 79 0.0 0.0 0.00 0.00 0.00 93 1006.6
20260506225416 8 79 0.0 0.0 0.00 0.00 0.00 93 1006.7
20260506224913 8 86 0.0 1.6 0.00 0.00 0.00 93 1006.8
20260506224411 8 79 0.0 1.6 0.00 0.00 0.00 93 1006.8
20260506223906 8 75 1.6 1.6 0.00 0.00 0.00 93 1006.8
20260506223402 8 61 1.6 3.2 0.00 0.00 0.00 93 1006.7
20260506222859 8 67 1.6 3.2 0.00 0.00 0.00 92 1006.8
20260506222355 8 80 3.2 9.7 0.00 0.00 0.00 92 1006.8
20260506221853 8 73 0.0 1.6 0.00 0.00 0.00 92 1006.7
20260506221350 9 69 0.0 4.8 0.00 0.00 0.00 92 1006.5
20260506220847 9 69 1.6 3.2 0.00 0.00 0.00 91 1006.5
20260506220343 9 77 0.0 3.2 0.00 0.00 0.00 91 1006.6
20260506215840 9 82 1.6 4.8 0.00 0.00 0.00 91 1006.6
20260506215336 9 81 4.8 4.8 0.00 0.00 0.00 91 1006.4
20260506214832 9 87 0.0 3.2 0.00 0.00 0.00 91 1006.4
20260506214329 9 84 0.0 3.2 0.00 0.00 0.00 91 1006.5
20260506213827 9 90 3.2 4.8 0.00 0.00 0.00 91 1006.6
20260506213324 9 80 1.6 3.2 0.00 0.00 0.00 90 1006.5
20260506212821 10 81 0.0 6.4 0.00 0.00 0.00 90 1006.2
20260506212317 10 76 0.0 3.2 0.00 0.00 0.00 90 1006.5
20260506211812 10 76 0.0 3.2 0.00 0.00 0.00 90 1006.4
20260506211308 10 66 3.2 11.3 0.00 0.00 0.00 89 1006.4
20260506210806 10 80 3.2 9.7 0.00 0.00 0.00 90 1006.4
20260506210302 10 68 3.2 11.3 0.00 0.00 0.00 89 1006.2
20260506205800 10 80 6.4 11.3 0.00 0.10 0.10 89 1006.4
20260506205255 10 58 3.2 9.7 0.00 0.10 0.10 89 1006.5
20260506204752 10 78 3.2 6.4 0.00 0.10 0.10 89 1006.2
20260506204250 10 66 3.2 4.8 0.00 0.10 0.10 88 1006.4
20260506203747 10 62 3.2 6.4 0.00 0.10 0.10 88 1006.4
20260506203244 10 54 4.8 6.4 0.00 0.10 0.10 88 1006.5
20260506202742 11 47 1.6 4.8 0.00 0.10 0.10 88 1006.5
20260506202238 11 61 3.2 9.7 0.00 0.10 0.10 88 1006.4
20260506201735 11 70 3.2 4.8 0.00 0.10 0.10 88 1006.6
20260506201232 11 59 3.2 6.4 0.00 0.10 0.10 88 1006.6
20260506200729 11 83 1.6 6.4 0.00 0.10 0.10 87 1006.6
20260506200225 11 57 3.2 4.8 0.00 0.10 0.10 87 1006.5
20260506195721 11 42 4.8 6.4 0.00 0.10 0.10 87 1006.3
20260506195218 11 68 3.2 6.4 0.00 0.10 0.10 87 1006.2
20260506194715 11 61 4.8 6.4 0.00 0.10 0.10 87 1006.5
20260506194212 11 24 1.6 6.4 0.00 0.10 0.10 86 1006.4
20260506193710 11 29 6.4 6.4 0.00 0.10 0.10 86 1006.3
20260506193201 11 341 4.8 11.3 0.00 0.10 0.10 86 1006.3
20260506192657 12 295 11.3 14.5 0.00 0.10 0.10 86 1006.5
20260506192154 12 306 6.4 14.5 0.00 0.10 0.10 86 1006.4
20260506191651 12 342 6.4 9.7 0.00 0.10 0.10 86 1005.8
20260506191147 12 68 1.6 6.4 0.00 0.10 0.10 86 1005.6
20260506190644 12 69 3.2 9.7 0.00 0.10 0.10 85 1005.7
20260506190141 12 94 1.6 3.2 0.00 0.10 0.10 85 1005.4
20260506185638 12 103 11.3 17.7 0.00 0.10 0.10 86 1005.5
20260506185134 12 81 4.8 9.7 0.00 0.10 0.10 86 1005.3
20260506184632 12 91 3.2 9.7 0.00 0.10 0.10 85 1005.3
20260506184129 12 88 1.6 12.9 0.00 0.10 0.10 85 1005.3
20260506183625 12 87 4.8 11.3 0.00 0.10 0.10 85 1005.2
20260506183121 12 86 8.0 9.7 0.00 0.10 0.10 85 1005.1
20260506182619 12 68 9.7 14.5 0.00 0.10 0.10 85 1005.3
20260506182116 12 90 3.2 6.4 0.00 0.10 0.10 85 1005.2
20260506181614 12 76 8.0 12.9 0.00 0.10 0.10 85 1005.1
20260506181111 12 56 4.8 12.9 0.00 0.10 0.10 85 1005.0
20260506180607 12 49 4.8 11.3 0.00 0.10 0.10 84 1005.2
20260506180104 12 80 4.8 11.3 0.00 0.10 0.10 84 1005.3
20260506175600 12 85 3.2 14.5 0.00 0.10 0.10 83 1005.3
20260506175056 12 82 11.3 14.5 0.00 0.10 0.10 83 1005.4
20260506174555 12 55 3.2 14.5 0.00 0.10 0.10 83 1005.2
20260506174051 12 53 4.8 11.3 0.00 0.10 0.10 82 1005.3
20260506173549 12 49 3.2 11.3 0.00 0.10 0.10 82 1005.4
20260506173045 12 76 8.0 12.9 0.00 0.10 0.10 82 1005.3
20260506172543 12 69 3.2 12.9 0.00 0.10 0.10 82 1005.2
20260506172039 12 85 4.8 12.9 0.00 0.10 0.10 81 1005.2
20260506171537 13 70 11.3 14.5 0.00 0.10 0.10 81 1005.3
20260506171035 13 88 8.0 14.5 0.00 0.10 0.10 81 1005.3
20260506170532 13 79 3.2 6.4 0.00 0.10 0.10 81 1005.2
20260506170029 13 87 6.4 12.9 0.00 0.10 0.10 81 1005.2
20260506165527 13 70 4.8 11.3 0.00 0.10 0.10 81 1005.4
20260506165023 13 67 6.4 17.7 0.00 0.10 0.10 80 1005.2
20260506164520 13 56 3.2 14.5 0.00 0.10 0.10 80 1005.3
20260506164018 13 78 11.3 17.7 0.00 0.10 0.10 79 1005.3
20260506163513 13 53 9.7 22.5 0.00 0.10 0.10 78 1005.4
20260506163009 13 76 6.4 27.4 0.00 0.10 0.10 79 1005.5
20260506162506 13 77 3.2 20.9 0.00 0.10 0.10 79 1005.4
20260506162003 13 38 9.7 20.9 0.00 0.10 0.10 79 1005.2
20260506161500 13 55 3.2 24.1 0.00 0.10 0.10 78 1005.5
20260506160958 14 63 17.7 20.9 0.00 0.10 0.10 78 1005.3
20260506160455 14 49 8.0 16.1 0.00 0.10 0.10 78 1005.6
20260506155952 13 66 12.9 16.1 0.00 0.10 0.10 79 1005.6
20260506155450 13 69 9.7 20.9 0.00 0.10 0.10 78 1005.6
20260506153616 14 46 11.3 16.1 0.00 0.10 0.10 78 1005.8
20260506153114 14 22 11.3 16.1 0.00 0.10 0.10 78 1005.9
20260506152611 14 56 9.7 16.1 0.00 0.10 0.10 80 1006.0
20260506152108 14 67 6.4 12.9 0.00 0.10 0.10 80 1006.0
20260506151606 14 56 3.2 9.7 0.00 0.10 0.10 81 1006.1
20260506151103 14 60 4.8 11.3 0.00 0.10 0.10 81 1005.9
20260506150600 14 23 6.4 11.3 0.18 0.10 0.10 81 1006.2
20260506150057 15 47 3.2 14.5 0.18 0.10 0.10 80 1006.2
20260506145553 15 72 6.4 6.4 0.13 0.08 0.08 80 1006.2
20260506145051 15 66 3.2 6.4 0.30 0.08 0.08 78 1006.5
20260506144547 16 82 3.2 6.4 0.30 0.05 0.05 75 1006.8
20260506144044 16 86 4.8 9.7 0.13 0.03 0.03 70 1006.8
20260506143542 17 61 3.2 4.8 0.00 0.00 0.00 64 1007.2
20260506143041 17 79 0.0 3.2 0.00 0.00 0.00 63 1007.2
20260506142538 17 95 0.0 0.0 0.00 0.00 0.00 63 1006.9
20260506142036 17 80 3.2 9.7 0.00 0.00 0.00 62 1006.4
20260506141533 17 74 12.9 16.1 0.00 0.00 0.00 61 1006.1
20260506141032 17 53 6.4 11.3 0.00 0.00 0.00 61 1006.2
20260506140529 18 85 8.0 16.1 0.00 0.00 0.00 61 1006.1
20260506140026 18 81 3.2 14.5 0.00 0.00 0.00 61 1006.1
20260506135523 18 90 4.8 12.9 0.00 0.00 0.00 61 1006.2
20260506135019 18 88 8.0 16.1 0.00 0.00 0.00 60 1006.2
20260506134515 18 74 9.7 11.3 0.00 0.00 0.00 60 1006.4
20260506134012 18 85 12.9 20.9 0.00 0.00 0.00 58 1006.3
20260506133509 19 53 11.3 20.9 0.00 0.00 0.00 58 1006.2
20260506133006 19 84 6.4 14.5 0.00 0.00 0.00 59 1006.4
20260506132503 19 52 8.0 12.9 0.00 0.00 0.00 60 1006.7
20260506132000 18 75 9.7 14.5 0.00 0.00 0.00 59 1006.6
20260506131457 19 96 11.3 16.1 0.00 0.00 0.00 59 1006.8
20260506130953 18 86 16.1 24.1 0.00 0.00 0.00 58 1007.0
20260506130450 19 92 9.7 17.7 0.00 0.00 0.00 58 1006.9
20260506125948 19 71 8.0 14.5 0.00 0.00 0.00 58 1007.1
20260506125446 19 63 4.8 16.1 0.00 0.00 0.00 56 1007.1
20260506124944 18 85 12.9 17.7 0.00 0.00 0.00 58 1007.1
20260506124441 18 102 9.7 14.5 0.00 0.00 0.00 60 1007.1
20260506123939 18 76 9.7 16.1 0.00 0.00 0.00 59 1007.2
20260506123437 18 84 9.7 22.5 0.00 0.00 0.00 58 1007.2
20260506122934 18 93 12.9 16.1 0.00 0.00 0.00 58 1007.5
20260506122430 18 91 11.3 17.7 0.00 0.00 0.00 57 1007.3
20260506121929 18 83 6.4 12.9 0.00 0.00 0.00 59 1007.4
20260506121426 18 94 4.8 17.7 0.00 0.00 0.00 59 1007.2
20260506120923 18 80 14.5 20.9 0.00 0.00 0.00 56 1007.7
20260506120420 18 82 9.7 17.7 0.00 0.00 0.00 56 1007.5
20260506115917 18 85 8.0 22.5 0.00 0.00 0.00 59 1007.4
20260506115415 18 86 14.5 22.5 0.00 0.00 0.00 56 1007.7
20260506114913 18 58 12.9 29.0 0.00 0.00 0.00 55 1007.5
20260506114410 18 92 9.7 12.9 0.00 0.00 0.00 58 1007.5
20260506113909 18 79 6.4 14.5 0.00 0.00 0.00 60 1007.7
20260506113406 17 66 6.4 22.5 0.00 0.00 0.00 59 1007.7
20260506112903 17 28 8.0 14.5 0.00 0.00 0.00 60 1007.8
20260506112400 17 101 8.0 20.9 0.00 0.00 0.00 61 1008.0
20260506111857 17 90 6.4 24.1 0.00 0.00 0.00 57 1008.0
20260506111355 17 69 12.9 17.7 0.00 0.00 0.00 56 1007.9
20260506110852 17 96 6.4 20.9 0.00 0.00 0.00 60 1008.1
20260506110350 17 85 6.4 22.5 0.00 0.00 0.00 59 1008.0
20260506105847 17 74 4.8 16.1 0.00 0.00 0.00 61 1008.3
20260506105343 17 83 12.9 22.5 0.00 0.00 0.00 58 1008.2
20260506104840 17 81 17.7 24.1 0.00 0.00 0.00 57 1008.1
20260506104338 17 91 11.3 16.1 0.00 0.00 0.00 60 1008.2
20260506103836 16 118 9.7 16.1 0.00 0.00 0.00 60 1008.4
20260506103333 16 86 6.4 16.1 0.00 0.00 0.00 60 1008.4
20260506102830 16 47 4.8 14.5 0.00 0.00 0.00 60 1008.5
20260506102328 17 87 9.7 14.5 0.00 0.00 0.00 58 1008.5
20260506101825 16 47 8.0 11.3 0.00 0.00 0.00 61 1008.5
20260506101321 16 65 8.0 16.1 0.00 0.00 0.00 60 1008.8
20260506100819 16 82 3.2 12.9 0.00 0.00 0.00 63 1008.8
20260506100317 16 60 6.4 17.7 0.00 0.00 0.00 63 1008.7
20260506095815 15 67 6.4 12.9 0.00 0.00 0.00 63 1008.6
20260506095312 15 30 6.4 20.9 0.00 0.00 0.00 61 1008.5
20260506094809 15 67 14.5 20.9 0.00 0.00 0.00 62 1008.6
20260506094307 15 75 8.0 22.5 0.00 0.00 0.00 61 1008.5
20260506093805 15 65 8.0 14.5 0.00 0.00 0.00 64 1008.5
20260506093302 15 72 9.7 22.5 0.00 0.00 0.00 62 1008.6
20260506092800 15 85 6.4 20.9 0.00 0.00 0.00 63 1008.5
20260506092257 15 38 14.5 17.7 0.00 0.00 0.00 62 1008.6
20260506091754 15 72 14.5 20.9 0.00 0.00 0.00 63 1008.3
20260506091252 14 80 8.0 14.5 0.00 0.00 0.00 65 1008.5
20260506090750 14 50 12.9 25.7 0.00 0.00 0.00 63 1008.7
20260506090247 15 73 9.7 17.7 0.00 0.00 0.00 64 1008.6
20260506085743 14 51 8.0 24.1 0.00 0.00 0.00 64 1008.6
20260506085240 15 48 14.5 17.7 0.00 0.00 0.00 65 1008.6
20260506084736 14 41 4.8 14.5 0.00 0.00 0.00 66 1008.8
20260506084233 14 74 8.0 20.9 0.00 0.00 0.00 65 1008.8
20260506083730 14 64 4.8 16.1 0.00 0.00 0.00 66 1008.8
20260506083228 14 64 9.7 16.1 0.00 0.00 0.00 65 1008.8
20260506082725 14 56 3.2 16.1 0.00 0.00 0.00 68 1008.8
20260506082220 14 111 4.8 14.5 0.00 0.00 0.00 69 1009.1
20260506081718 13 78 4.8 14.5 0.00 0.00 0.00 69 1008.9
20260506081215 13 81 9.7 17.7 0.00 0.00 0.00 68 1009.2
20260506080713 13 80 8.0 16.1 0.00 0.00 0.00 70 1009.2
20260506080209 13 94 8.0 17.7 0.00 0.00 0.00 69 1009.2
20260506073154 12 65 11.3 16.1 0.00 0.00 0.00 72 1009.5
20260506072650 12 79 8.0 12.9 0.00 0.00 0.00 72 1009.2
20260506072148 12 92 11.3 17.7 0.00 0.00 0.00 72 1009.4
20260506071645 12 66 9.7 17.7 0.00 0.00 0.00 72 1009.5
20260506071143 12 63 6.4 12.9 0.00 0.00 0.00 74 1009.5
20260506070640 12 61 14.5 20.9 0.00 0.00 0.00 72 1009.4
20260506070137 12 56 9.7 12.9 0.00 0.00 0.00 73 1009.5